Location: ?????????
(41.2286°N, 23.0068°E)
Time: 08:55:25
(UTC+00:00)

Helios 1A Rocket - Pass Details

Date: 08 November 2025
Orbit: 440 x 453 km, 98.3° (Epoch: 05 December)

Event Time Altitude Azimuth Distance (km) Brightness Sun altitude
Rises 03:45:06 0° 167° (SSE) 2,451 6.4 -15.8°
Reaches altitude 10° 03:47:07 10° 168° (SSE) 1,579 5.4 -15.4°
Maximum altitude 03:50:30 83° 255° (WSW) 458 2.3 -14.8°
Drops below altitude 10° 03:53:53 10° 345° (NNW) 1,578 4.9 -14.2°
Enters shadow 03:55:16 - 346° (NNW) 2,171 5.6 -13.9°
